TimePDT,TemperatureF,Dew PointF,Humidity,Sea Level PressureIn,VisibilityMPH,Wind Direction,Wind SpeedMPH,Gust SpeedMPH,PrecipitationIn,Events,Conditions,WindDirDegrees,DateUTC
12:56 AM,54.0,48.9,83,29.97,10.0,NW,3.5,-,N/A,,Mostly Cloudy,310,2013-05-07 07:56:00
1:56 AM,52.0,48.9,89,29.97,10.0,Calm,Calm,-,N/A,,Scattered Clouds,0,2013-05-07 08:56:00
2:56 AM,53.1,48.9,86,29.98,10.0,Calm,Calm,-,N/A,,Overcast,0,2013-05-07 09:56:00
3:56 AM,53.1,50.0,89,29.98,10.0,Calm,Calm,-,N/A,,Overcast,0,2013-05-07 10:56:00
4:56 AM,53.1,48.9,86,29.98,10.0,Calm,Calm,-,N/A,,Overcast,0,2013-05-07 11:56:00
5:56 AM,52.0,48.9,89,29.99,10.0,Calm,Calm,-,N/A,,Overcast,0,2013-05-07 12:56:00
6:56 AM,52.0,50.0,93,30.00,10.0,Calm,Calm,-,N/A,,Overcast,0,2013-05-07 13:56:00
7:56 AM,54.0,50.0,86,30.01,10.0,Calm,Calm,-,N/A,,Overcast,0,2013-05-07 14:56:00
8:56 AM,59.0,50.0,72,30.01,10.0,Calm,Calm,-,N/A,,Scattered Clouds,0,2013-05-07 15:56:00
9:56 AM,63.0,50.0,63,30.00,10.0,SE,3.5,-,N/A,,Scattered Clouds,140,2013-05-07 16:56:00
10:56 AM,64.0,48.9,58,30.00,10.0,Calm,Calm,-,N/A,,Overcast,0,2013-05-07 17:56:00
11:56 AM,66.9,46.9,49,30.01,10.0,NNW,5.8,-,N/A,,Overcast,340,2013-05-07 18:56:00
12:56 PM,69.1,48.0,47,29.99,10.0,West,10.4,-,N/A,,Overcast,260,2013-05-07 19:56:00
1:56 PM,69.1,46.9,45,29.98,10.0,Variable,6.9,-,N/A,,Overcast,0,2013-05-07 20:56:00
2:56 PM,68.0,48.0,49,29.98,10.0,WNW,9.2,-,N/A,,Overcast,290,2013-05-07 21:56:00
3:56 PM,72.0,48.0,43,29.97,10.0,West,8.1,-,N/A,,Overcast,270,2013-05-07 22:56:00
4:56 PM,71.1,48.0,44,29.96,10.0,NNW,6.9,-,N/A,,Overcast,330,2013-05-07 23:56:00
5:56 PM,69.1,48.9,49,29.97,10.0,NW,8.1,-,N/A,,Overcast,320,2013-05-08 00:56:00
6:56 PM,66.9,50.0,54,29.98,10.0,NW,6.9,-,N/A,,Overcast,320,2013-05-08 01:56:00
7:56 PM,64.9,48.9,56,29.99,10.0,West,3.5,-,N/A,,Overcast,270,2013-05-08 02:56:00
8:56 PM,62.1,50.0,65,30.01,10.0,SE,5.8,-,N/A,,Overcast,140,2013-05-08 03:56:00
9:56 PM,61.0,48.9,64,30.03,10.0,North,3.5,-,N/A,,Mostly Cloudy,350,2013-05-08 04:56:00
10:56 PM,57.9,48.9,72,30.03,10.0,Calm,Calm,-,N/A,,Partly Cloudy,0,2013-05-08 05:56:00
11:56 PM,55.0,48.9,80,30.04,10.0,Calm,Calm,-,N/A,,Clear,0,2013-05-08 06:56:00